Change the Weather History Date:

Wednesday, February 26, 2014

  Actual Average Record
Temperature  
Mean Temperature 44 °F -  
Max Temperature 52 °F 48 °F 55 °F (2002)
Min Temperature 36 °F 35 °F 26 °F (2004)
Degree Days  
Heating Degree Days 21    
Moisture  
Dew Point 40 °F    
Average Humidity 84    
Maximum Humidity 100    
Minimum Humidity 55    
Precipitation  
Precipitation 0.00 in - - ()
Sea Level Pressure  
Sea Level Pressure 29.96 in    
Wind  
Wind Speed 6 mph ()    
Max Wind Speed 12 mph    
Max Gust Speed -    
Visibility 7.5 miles    
Events      
Averages and records for this station are not official NWS values.
T = Trace of Precipitation, MM = Missing Value Source: Averaged Metar Reports

Daily Weather History Graph

Daily Weather History Graph

Search for Another Location

Airport or City:

Trip Planner

Search our weather history database for the weather conditions in past years. The results will help you decide how hot, cold, wet, or windy it might be!

Date:

Astronomy

Feb. 26, 2014 Rise Set
Actual Time 7:32 AM CET 6:14 PM CET
Civil Twilight 6:58 AM CET 6:48 PM CET
Nautical Twilight 6:19 AM CET 7:27 PM CET
Astronomical Twilight 5:41 AM CET 8:06 PM CET
Moon 5:22 AM CET (2/26) 2:55 PM CET (2/26)
Length of Visible Light 11h 50m
Length of Day
10h 42m
Waning Crescent, 12% of the Moon is Illuminated
Feb 26
Waning Crescent
Mar 1
New
Mar 8
First Quarter
Mar 16
Full
Mar 24
Last Quarter

Hourly Weather History & Observations

Time (CET) Temp. Windchill Dew Point Humidity Pressure Visibility Wind Dir Wind Speed Gust Speed Precip Events Conditions
12:00 AM 44 °F - 42 °F 89% 29.80 in 28 mi SSW 6.7 mph - -   Partly Cloudy
12:25 AM 42.8 °F 38.6 °F 41.0 °F 93% 29.80 in 6.2 mi SSW 6.9 mph - N/A   Mostly Cloudy
12:55 AM 42.8 °F 39.3 °F 41.0 °F 93% 29.80 in 6.2 mi SSW 5.8 mph - N/A   Mostly Cloudy
1:00 AM 43 °F - 41 °F 92% 29.81 in 28 mi SSW 6.7 mph - -   Partly Cloudy
1:25 AM 42.8 °F 40.1 °F 41.0 °F 93% 29.80 in 6.2 mi SSW 4.6 mph - N/A   Overcast
1:46 AM 42.8 °F 40.1 °F 41.0 °F 93% 29.83 in 6.2 mi South 4.6 mph - N/A   Overcast
1:51 AM 42.8 °F 40.1 °F 41.0 °F 93% 29.83 in 6.2 mi South 4.6 mph - N/A   Overcast
1:55 AM 42.8 °F 41.1 °F 41.0 °F 93% 29.83 in 6.2 mi South 3.5 mph - N/A   Overcast
2:00 AM 42 °F - 41 °F 95% 29.84 in 22 mi South 2.2 mph - -   Overcast
2:04 AM 42.8 °F 41.1 °F 41.0 °F 93% 29.83 in 6.2 mi South 3.5 mph - N/A   Overcast
2:16 AM 42.8 °F 41.1 °F 41.0 °F 93% 29.83 in 6.2 mi South 3.5 mph - N/A   Overcast
2:25 AM 42.8 °F 40.1 °F 41.0 °F 93% 29.83 in 6.2 mi South 4.6 mph - N/A   Overcast
2:43 AM 42.8 °F 39.3 °F 41.0 °F 93% 29.83 in 6.2 mi SSW 5.8 mph - N/A   Overcast
2:47 AM 42.8 °F 39.3 °F 41.0 °F 93% 29.83 in 6.2 mi South 5.8 mph - N/A   Overcast
2:55 AM 42.8 °F 39.3 °F 41.0 °F 93% 29.83 in 6.2 mi SSW 5.8 mph - N/A   Overcast
3:00 AM 42 °F - 41 °F 93% 29.85 in 18 mi SSW 4.5 mph - -   Scattered Clouds
3:25 AM 39.2 °F 35.9 °F 39.2 °F 100% 29.83 in 6.2 mi SSW 4.6 mph - N/A   Unknown
3:55 AM 41.0 °F 38.0 °F 41.0 °F 100% 29.86 in 6.2 mi SSW 4.6 mph - N/A   Unknown
4:00 AM 41 °F - 40 °F 92% 29.86 in 12 mi SSW 4.5 mph - -  
4:25 AM 41.0 °F 38.0 °F 39.2 °F 93% 29.86 in 6.2 mi SSW 4.6 mph - N/A   Partly Cloudy
4:55 AM 37.4 °F 32.8 °F 37.4 °F 100% 29.86 in 6.2 mi South 5.8 mph - N/A   Unknown
5:00 AM 38 °F - 38 °F 99% 29.88 in 9 mi South 6.7 mph - -  
5:25 AM 37.4 °F 32.1 °F 37.4 °F 100% 29.86 in 6.2 mi South 6.9 mph - N/A   Unknown
5:55 AM 37.4 °F 32.1 °F 37.4 °F 100% 29.86 in 6.2 mi South 6.9 mph - N/A   Mostly Cloudy
6:00 AM 39 °F - 38 °F 97% 29.89 in 8 mi SSW 6.7 mph - -   Partly Cloudy
6:25 AM 37.4 °F 32.1 °F 37.4 °F 100% 29.89 in 6.2 mi South 6.9 mph - N/A   Mostly Cloudy
6:55 AM 37.4 °F 32.1 °F 37.4 °F 100% 29.89 in 6.2 mi South 6.9 mph - N/A   Mostly Cloudy
7:00 AM 38 °F - 37 °F 97% 29.91 in 7 mi South 6.7 mph - -   Partly Cloudy
7:25 AM 39.2 °F 35.0 °F 39.2 °F 100% 29.89 in 6.2 mi SSW 5.8 mph - N/A   Overcast
7:55 AM 39.2 °F 34.2 °F 39.2 °F 100% 29.92 in 6.2 mi SSW 6.9 mph - N/A   Overcast
8:00 AM 40 °F - 39 °F 93% 29.93 in 7 mi SSW 6.7 mph - -   Overcast
8:25 AM 39.2 °F 35.0 °F 39.2 °F 100% 29.92 in 6.2 mi SSW 5.8 mph - N/A   Mostly Cloudy
8:26 AM 39.2 °F 35.0 °F 39.2 °F 100% 29.92 in 6.2 mi SSW 5.8 mph - N/A   Scattered Clouds
8:47 AM 41.0 °F 37.1 °F 39.2 °F 93% 29.92 in 6.2 mi SSW 5.8 mph - N/A   Overcast
8:55 AM 41.0 °F 37.1 °F 39.2 °F 93% 29.95 in 6.2 mi SSW 5.8 mph - N/A   Overcast
9:00 AM 41 °F - 40 °F 94% 29.96 in 9 mi SSW 6.7 mph - -   Overcast
9:25 AM 42.8 °F 38.0 °F 39.2 °F 87% 29.95 in 6.2 mi SW 8.1 mph - N/A   Unknown
9:55 AM 42.8 °F 40.1 °F 39.2 °F 87% 29.95 in 6.2 mi SSW 4.6 mph - N/A   Partly Cloudy
10:00 AM 42 °F - 40 °F 88% 29.97 in 11 mi SSW 6.7 mph - -   Scattered Clouds
10:25 AM 42.8 °F 38.6 °F 41.0 °F 93% 29.98 in 6.2 mi SSW 6.9 mph - N/A   Scattered Clouds
10:55 AM 44.6 °F 40.7 °F 41.0 °F 87% 29.98 in 6.2 mi SSW 6.9 mph - N/A   Scattered Clouds
11:00 AM 44 °F - 41 °F 83% 29.99 in 12 mi SSW 8.9 mph - -   Mostly Cloudy
11:25 AM 44.6 °F 40.7 °F 41.0 °F 87% 29.98 in 6.2 mi SSW 6.9 mph - N/A   Overcast
11:55 AM 46.4 °F 42.4 °F 41.0 °F 81% 29.98 in 6.2 mi SW 8.1 mph - N/A   Mostly Cloudy
12:00 PM 46 °F - 41 °F 77% 30.00 in 12 mi SW 8.9 mph - -   Scattered Clouds
12:25 PM 48.2 °F - 41.0 °F 76% 29.98 in 6.2 mi SW 9.2 mph - N/A   Mostly Cloudy
12:40 PM 48.2 °F - 41.0 °F 76% 29.98 in 6.2 mi SSW 11.5 mph - N/A   Unknown
12:55 PM 48.2 °F - 41.0 °F 76% 29.98 in 6.2 mi SSW 11.5 mph - N/A   Unknown
1:00 PM 50 °F - 43 °F 68% 30.01 in 13 mi SSW 11.2 mph - -   Partly Cloudy
1:17 PM 50.0 °F - 41.0 °F 71% 30.01 in 6.2 mi SW 10.4 mph - N/A   Scattered Clouds
1:25 PM 50.0 °F - 42.8 °F 76% 30.01 in 6.2 mi SW 9.2 mph - N/A   Mostly Cloudy
1:43 PM 50.0 °F - 41.0 °F 71% 30.01 in 6.2 mi SSW 10.4 mph - N/A   Mostly Cloudy
1:46 PM 50.0 °F - 41.0 °F 71% 30.01 in 6.2 mi SSW 10.4 mph - N/A   Mostly Cloudy
1:55 PM 50.0 °F - 41.0 °F 71% 30.01 in 6.2 mi SSW 9.2 mph - N/A   Mostly Cloudy
2:00 PM 50 °F - 42 °F 66% 30.01 in 13 mi SSW 11.2 mph - -   Partly Cloudy
2:05 PM 50.0 °F - 42.8 °F 76% 30.01 in 6.2 mi SSW 10.4 mph - N/A   Mostly Cloudy
2:09 PM 50.0 °F - 41.0 °F 71% 30.01 in 6.2 mi SSW 10.4 mph - N/A   Mostly Cloudy
2:25 PM 51.8 °F - 41.0 °F 67% 30.01 in 6.2 mi SW 10.4 mph - N/A   Mostly Cloudy
2:26 PM 51.8 °F - 41.0 °F 67% 30.01 in 6.2 mi SW 10.4 mph - N/A   Overcast
2:36 PM 51.8 °F - 39.2 °F 62% 30.01 in 6.2 mi SW 10.4 mph - N/A   Overcast
2:55 PM 50.0 °F - 39.2 °F 66% 30.01 in 6.2 mi WSW 8.1 mph - N/A   Mostly Cloudy
3:00 PM 51 °F - 40 °F 55% 30.02 in 16 mi WSW 6.7 mph - -   Mostly Cloudy
3:13 PM 50.0 °F - 39.2 °F 66% 30.01 in 6.2 mi WSW 8.1 mph - N/A   Mostly Cloudy
3:25 PM 50.0 °F - 39.2 °F 66% 30.01 in 6.2 mi WSW 9.2 mph - N/A   Mostly Cloudy
3:55 PM 50.0 °F - 39.2 °F 66% 30.01 in 6.2 mi WSW 6.9 mph - N/A   Mostly Cloudy
4:00 PM 50 °F - 39 °F 57% 30.03 in 18 mi WSW 6.7 mph - -   Scattered Clouds
4:25 PM 50.0 °F - 39.2 °F 66% 30.01 in 6.2 mi SW 6.9 mph - N/A   Overcast
4:32 PM 50.0 °F - 39.2 °F 66% 30.01 in 6.2 mi WSW 6.9 mph - N/A   Overcast
4:55 PM 50.0 °F - 41.0 °F 71% 30.04 in 6.2 mi WSW 5.8 mph - N/A   Mostly Cloudy
5:00 PM 49 °F - 40 °F 64% 30.04 in 12 mi West 4.5 mph - -   Scattered Clouds
5:25 PM 48.2 °F - 41.0 °F 76% 30.04 in 6.2 mi West 3.5 mph - N/A   Overcast
5:55 PM 48.2 °F - 41.0 °F 76% 30.04 in 6.2 mi West 3.5 mph - N/A   Overcast
6:00 PM 48 °F - 40 °F 66% 30.06 in 11 mi West 4.5 mph - -   Overcast
6:25 PM 48.2 °F - 41.0 °F 76% 30.04 in 6.2 mi WSW 2.3 mph - N/A   Overcast
6:55 PM 46.4 °F 45.2 °F 41.0 °F 81% 30.06 in 6.2 mi South 3.5 mph - N/A   Overcast
7:00 PM 46 °F - 41 °F 77% 30.08 in 9 mi SSW 2.2 mph - -   Unknown Precipitation
7:25 PM 46.4 °F - 41.0 °F 81% 30.06 in 6.2 mi SW 2.3 mph - N/A   Mostly Cloudy
7:55 PM 42.8 °F 41.1 °F 39.2 °F 87% 30.06 in 6.2 mi South 3.5 mph - N/A   Partly Cloudy
8:00 PM 44 °F - 40 °F 80% 30.09 in 9 mi SSW 4.5 mph - -   Partly Cloudy
8:25 PM 42.8 °F 39.3 °F 39.2 °F 87% 30.06 in 6.2 mi SSW 5.8 mph - N/A   Partly Cloudy
8:55 PM 42.8 °F - 39.2 °F 87% 30.06 in 6.2 mi WSW 2.3 mph - N/A   Mostly Cloudy
9:00 PM 44 °F - 39 °F 76% 30.09 in 12 mi West 2.2 mph - -   Scattered Clouds
9:25 PM 41.0 °F - 39.2 °F 93% 30.06 in 6.2 mi Calm Calm - N/A   Scattered Clouds
9:55 PM 41.0 °F 38.0 °F 37.4 °F 87% 30.09 in 6.2 mi South 4.6 mph - N/A   Scattered Clouds
10:00 PM 40 °F - 37 °F 85% 30.10 in 11 mi South 4.5 mph - -   Mostly Cloudy
10:25 PM 41.0 °F 37.1 °F 39.2 °F 93% 30.09 in 6.2 mi SSW 5.8 mph - N/A   Overcast
10:55 PM 41.0 °F 36.4 °F 39.2 °F 93% 30.09 in 6.2 mi SSW 6.9 mph - N/A   Partly Cloudy
11:00 PM 40 °F - 38 °F 88% 30.10 in 10 mi SSW 6.7 mph - -   Scattered Clouds
11:25 PM 39.2 °F 34.2 °F 37.4 °F 93% 30.09 in 6.2 mi South 6.9 mph - N/A   Unknown
11:55 PM 39.2 °F 34.2 °F 37.4 °F 93% 30.09 in 6.2 mi SSW 6.9 mph - N/A   Partly Cloudy